Weather History for Glens Falls, NY

Change the Weather History Date:

Saturday, April 27, 2013

  Actual Average Record
Temperature  
Mean Temperature 47 °F 49 °F  
Max Temperature 63 °F 62 °F 90 °F (1990)
Min Temperature 30 °F 37 °F 23 °F (2002)
Degree Days  
Heating Degree Days 18 16  
Month to date heating degree days 581 567  
Since 1 July heating degree days 6668 7230  
Cooling Degree Days 0 0  
Month to date cooling degree days 0 0  
Year to date cooling degree days 0 0  
Moisture  
Dew Point 29 °F    
Average Humidity 57    
Maximum Humidity 89    
Minimum Humidity 25    
Precipitation  
Precipitation 0.00 in 0.10 in 1.15 in (1979)
Month to date precipitation 2.65 2.66  
Year to date precipitation 8.06 10.54  
Sea Level Pressure  
Sea Level Pressure 30.39 in    
Wind  
Wind Speed 2 mph (NNE)    
Max Wind Speed 9 mph    
Max Gust Speed 14 mph    
Visibility 10 miles    
Events      
T = Trace of Precipitation, MM = Missing Value Source: NWS Daily Summary

Daily Weather History Graph

Daily Weather History Graph

Search for Another Location

Airport:

Trip Planner

Search our weather history database for the weather conditions in past years. The results will help you decide how hot, cold, wet, or windy it might be!

Date:

Astronomy

Apr. 27, 2013 Rise Set
Actual Time 5:52 AM EDT 7:51 PM EDT
Civil Twilight 5:22 AM EDT 8:22 PM EDT
Nautical Twilight 4:44 AM EDT 9:00 PM EDT
Astronomical Twilight 4:03 AM EDT 9:42 PM EDT
Moon 10:21 PM EDT (4/27) 7:06 AM EDT (4/27)
Length of Visible Light 15h 00m
Length of Day
13h 58m
Waning Gibbous, 95% of the Moon is Illuminated
Apr 27
Waning Gibbous
May 2
Last Quarter
May 9
New
May 18
First Quarter
May 25
Full

Hourly Weather History & Observations

Time (EDT) Temp. Windchill Dew Point Humidity Pressure Visibility Wind Dir Wind Speed Gust Speed Precip Events Conditions
12:53 AM 35.1 °F - 30.9 °F 85% 30.47 in 10.0 mi Calm Calm - N/A   Clear
1:53 AM 34.0 °F - 30.0 °F 85% 30.46 in 10.0 mi Calm Calm - N/A   Clear
2:53 AM 33.1 °F - 28.9 °F 85% 30.45 in 10.0 mi Calm Calm - N/A   Clear
3:53 AM 32.0 °F 28.7 °F 28.0 °F 85% 30.45 in 10.0 mi NNW 3.5 mph - N/A   Clear
4:53 AM 35.1 °F 31.0 °F 28.0 °F 76% 30.45 in 10.0 mi NW 4.6 mph - N/A   Clear
5:53 AM 30.0 °F - 26.1 °F 85% 30.45 in 10.0 mi Calm Calm - N/A   Clear
6:53 AM 36.0 °F 33.3 °F 30.0 °F 79% 30.45 in 10.0 mi North 3.5 mph - N/A   Clear
7:53 AM 41.0 °F 38.0 °F 30.9 °F 67% 30.46 in 10.0 mi North 4.6 mph - N/A   Clear
8:53 AM 46.0 °F 44.8 °F 30.9 °F 56% 30.46 in 10.0 mi North 3.5 mph - N/A   Clear
9:53 AM 48.9 °F - 32.0 °F 52% 30.46 in 10.0 mi Calm Calm - N/A   Clear
10:53 AM 53.1 °F - 28.9 °F 40% 30.45 in 10.0 mi Calm Calm - N/A   Clear
11:53 AM 57.0 °F - 28.9 °F 34% 30.42 in 10.0 mi East 6.9 mph - N/A   Clear
12:53 PM 57.9 °F - 27.0 °F 31% 30.40 in 10.0 mi Variable 4.6 mph - N/A   Clear
1:53 PM 60.1 °F - 27.0 °F 28% 30.38 in 10.0 mi NNE 6.9 mph - N/A   Clear
2:53 PM 61.0 °F - 27.0 °F 27% 30.35 in 10.0 mi ESE 4.6 mph - N/A   Mostly Cloudy
3:53 PM 62.1 °F - 26.1 °F 25% 30.32 in 10.0 mi Calm Calm - N/A   Mostly Cloudy
4:53 PM 62.1 °F - 30.0 °F 30% 30.30 in 10.0 mi SSE 4.6 mph - N/A   Overcast
5:53 PM 62.1 °F - 28.9 °F 29% 30.30 in 10.0 mi ESE 3.5 mph - N/A   Overcast
6:53 PM 61.0 °F - 28.0 °F 29% 30.30 in 10.0 mi Calm Calm - N/A   Mostly Cloudy
7:53 PM 55.9 °F - 30.0 °F 37% 30.29 in 10.0 mi North 3.5 mph - N/A   Partly Cloudy
8:53 PM 50.0 °F - 32.0 °F 50% 30.30 in 10.0 mi Calm Calm - N/A   Clear
9:53 PM 44.1 °F 42.5 °F 33.1 °F 65% 30.31 in 10.0 mi WNW 3.5 mph - N/A   Clear
10:53 PM 42.1 °F - 32.0 °F 67% 30.31 in 10.0 mi Calm Calm - N/A   Clear
11:53 PM 39.0 °F - 32.0 °F 76% 30.31 in 10.0 mi Calm Calm - N/A   Clear